Location: Laas
(43.4693°N, 0.3073°E)
Time: 14:36:33
(UTC+00:00)

CZ-4B R/B - Pass Details

Date: 25 October 2020
Orbit: 389 x 462 km, 97.6° (Epoch: 24 November)

Event Time Altitude Azimuth Distance (km) Brightness Sun altitude
Rises 18:25:58 0° 357° (N) 2,409 5.1 -16.3°
Reaches altitude 10° 18:28:23 10° 339° (NNW) 1,521 4.3 -16.8°
Maximum altitude 18:30:44 19° 292° (WNW) 1,074 4.2 -17.2°
Drops below altitude 10° 18:33:03 10° 245° (WSW) 1,481 5.0 -17.6°
Sets 18:35:22 0° 227° (SW) 2,322 5.8 -18.0°
